Tracking 27112 objects as of 26-Mar-2023
HD Live streaming from Space Station
objects crossing your sky now

SJ 16-02 DEB

Track SJ 16-02 DEB now!
10-day predictions


NORAD ID: 43428
Int'l Code: 2016-043C
Perigee: 604.2 km
Apogee: 1,004.2 km
Inclination: 75.0 °
Period: 100.8 minutes
Semi major axis: 7175 km
RCS: Unknown
Launch date: June 29, 2016
Source: People's Republic of China (PRC)
Launch site: Jiuquan Satellite Launch Center, China (JSC)

Note: This is SATELLITE DEBRIS
Your satellite tracking list
Your tracking list is empty




NASA's NSSDC Master Catalog

Two Line Element Set (TLE):
1 43428U 16043C   23084.26489795  .00004594  00000-0  12146-2 0  9990
2 43428  74.9706  26.2710 0278713 185.0665 174.7661 14.28412470349813
Source of the keplerian elements: AFSPC